Medford, OR

6:54 AM PDT on October 19, 2017 (GMT -0700)
Rogue Valley International-Medford

Weather History for KMFR - April, 2014

Change the Weather History Date:

Thursday, April 3, 2014

  Actual Average Record
Temperature  
Mean Temperature 51 °F 51 °F  
Max Temperature 61 °F 62 °F 86 °F (2000)
Min Temperature 40 °F 39 °F 22 °F (1918)
Degree Days  
Heating Degree Days 14 14  
Month to date heating degree days 46 44  
Since 1 July heating degree days 3837 3676  
Cooling Degree Days 0 0  
Month to date cooling degree days 0 0  
Year to date cooling degree days 0 0  
Moisture  
Dew Point 39 °F    
Average Humidity 68    
Maximum Humidity 93    
Minimum Humidity 42    
Precipitation  
Precipitation 0.18 in 0.05 in 0.58 in (1936)
Month to date precipitation 0.18 0.14  
Year to date precipitation 9.01 6.29  
Snow  
Snow 0.00 in 0.00 in - ()
Month to date snowfall 0.0 0.0  
Since 1 July snowfall 3.4 4.1  
Snow Depth 0.00 in    
Sea Level Pressure  
Sea Level Pressure 30.00 in    
Wind  
Wind Speed 4 mph (ESE)    
Max Wind Speed 24 mph    
Max Gust Speed 30 mph    
Visibility 10 miles    
Events Rain    
T = Trace of Precipitation, MM = Missing Value Source: NWS Daily Summary

Daily Weather History Graph

Daily Weather History Graph

Search for Another Location

Airport or City:

Trip Planner

Search our weather history database for the weather conditions in past years. The results will help you decide how hot, cold, wet, or windy it might be!

Date:

Astronomy

Apr. 03, 2014 Rise Set
Actual Time 6:50 AM PDT 7:39 PM PDT
Civil Twilight 6:21 AM PDT 8:08 PM PDT
Nautical Twilight 5:48 AM PDT 8:42 PM PDT
Astronomical Twilight 5:13 AM PDT 9:17 PM PDT
Moon 9:19 AM PDT (4/3) No Moon Set
Length of Visible Light 13h 46m
Length of Day
12h 49m
Waxing Crescent, 18% of the Moon is Illuminated
Apr 3
Waxing Crescent
Apr 7
First Quarter
Apr 15
Full
Apr 22
Last Quarter
Apr 28
New

Hourly Weather History & Observations

Time (PDT) Temp. Windchill Dew Point Humidity Pressure Visibility Wind Dir Wind Speed Gust Speed Precip Events Conditions
12:53 AM 48.9 °F - 37.0 °F 64% 30.03 in 10.0 mi Calm Calm - N/A   Overcast
1:53 AM 46.9 °F - 37.9 °F 71% 30.03 in 10.0 mi Calm Calm - N/A   Mostly Cloudy
2:53 AM 45.0 °F - 37.9 °F 76% 30.03 in 10.0 mi Calm Calm - N/A   Overcast
3:53 AM 44.1 °F 42.5 °F 37.0 °F 76% 30.02 in 10.0 mi NNE 3.5 mph - N/A   Clear
4:53 AM 43.0 °F - 37.0 °F 80% 30.02 in 10.0 mi Calm Calm - N/A   Clear
5:53 AM 43.0 °F - 37.0 °F 80% 30.02 in 10.0 mi Calm Calm - N/A   Clear
6:53 AM 41.0 °F 39.0 °F 37.0 °F 86% 30.03 in 10.0 mi NNE 3.5 mph - N/A   Partly Cloudy
7:53 AM 43.0 °F - 37.0 °F 80% 30.03 in 10.0 mi Calm Calm - N/A   Partly Cloudy
8:53 AM 44.1 °F - 37.9 °F 79% 30.03 in 10.0 mi Calm Calm - N/A   Mostly Cloudy
9:53 AM 46.9 °F - 37.9 °F 71% 30.03 in 10.0 mi North 3.5 mph - N/A   Clear
10:53 AM 48.9 °F - 37.9 °F 66% 30.03 in 10.0 mi Calm Calm - N/A   Overcast
11:53 AM 53.1 °F - 39.9 °F 61% 30.01 in 10.0 mi NE 4.6 mph - N/A   Clear
12:53 PM 55.0 °F - 37.9 °F 53% 29.99 in 10.0 mi Calm Calm - N/A   Clear
1:53 PM 60.1 °F - 41.0 °F 49% 29.96 in 10.0 mi ESE 4.6 mph - N/A   Overcast
2:53 PM 60.1 °F - 37.9 °F 44% 29.94 in 10.0 mi Calm Calm - N/A   Mostly Cloudy
3:32 PM 59.0 °F - 37.0 °F 44% 29.94 in 10.0 mi SE 12.7 mph - N/A   Overcast
3:53 PM 57.0 °F - 37.9 °F 49% 29.94 in 10.0 mi SE 24.2 mph - N/A   Mostly Cloudy
4:53 PM 57.0 °F - 37.9 °F 49% 29.95 in 10.0 mi SW 5.8 mph - 0.00 in Rain Light Rain
5:53 PM 55.9 °F - 39.0 °F 53% 29.95 in 10.0 mi WSW 4.6 mph - 0.00 in   Overcast
6:45 PM 48.9 °F - 43.0 °F 80% 29.99 in 5.0 mi SE 8.1 mph - 0.11 in Rain Rain
6:53 PM 48.0 °F - 44.1 °F 86% 30.00 in 10.0 mi East 10.4 mph - 0.14 in Rain Heavy Rain
7:00 PM 48.0 °F - 44.1 °F 86% 29.99 in 10.0 mi ESE 8.1 mph - 0.01 in Rain Light Rain
8:53 PM 48.0 °F - 44.1 °F 86% 30.01 in 10.0 mi South 4.6 mph - 0.00 in   Overcast
9:53 PM 48.0 °F - 44.1 °F 86% 30.01 in 10.0 mi SE 6.9 mph - 0.00 in   Overcast
10:53 PM 48.0 °F - 43.0 °F 83% 30.02 in 10.0 mi SSE 3.5 mph - 0.00 in Rain Light Rain
11:53 PM 46.9 °F - 44.1 °F 90% 30.02 in 10.0 mi Calm Calm - 0.01 in Rain Light Rain